Home > Weather > Trondheim > Past weeks

Flag for Norway Past Weather in Trondheim, Norway — Yesterday and Last 2 Weeks

Now
50 °F

Partly sunny.


Feels Like: 47 °F
Forecast: 39 / 61 °F
Wind: 8 mph from West

Location: Trondheim / Vaernes

Current Time: May 25, 2016 at 1:20:02 PM

Latest Report: May 25, 2016 at 12:50 PM


Visibility: N/A

Pressure: 30.33 "Hg

Humidity: 76%

Dew Point: 43 °F

Location of TrondheimLocation

Past Weather in Trondheim — Graph

°F

Trondheim Temperature Yesterday

Maximum temperature yesterday: 50 °F (at 12:50 PM)
Minimum temperature yesterday: 45 °F (at 2:50 AM)
Average temperature yesterday: 48 °F

High & Low Weather Summary for the Past Weeks

 TemperatureHumidityPressure
High64 °F (May 22, 12:50 PM)100% (May 23, 9:20 AM)30.36 "Hg (May 23, 9:20 AM)
Low34 °F (May 11, 4:50 AM)25% (May 11, 2:20 PM)29.59 "Hg (May 20, 6:50 PM)
Average47 °F72%29.91 "Hg
* Reported May 10 11:20 AM — May 25 11:50 AM, Trondheim, Weather by CustomWeather, © 2016

Note: Actual official high and low records may vary slightly from our data, if they occured in-between our weather recording intervals... More about our weather records

Advertising

Trondheim Weather History for the Previous 24 Hours

Scroll right to see more
 ConditionsComfort  
Time TempWeatherWind HumidityBarometerVisibility
11:50 AM
Wed, May 25
48 °FPartly sunny.6 mph82%30.33 "HgN/A
11:20 AM48 °FBroken clouds.3 mph76%30.36 "HgN/A
10:50 AM48 °FScattered showers. Broken clouds.7 mph76%30.36 "HgN/A
10:20 AM48 °FDrizzle. Broken clouds.10 mph71%30.36 "HgN/A
9:50 AM48 °FScattered showers. Broken clouds.8 mph76%30.36 "HgN/A
9:20 AM48 °FScattered showers. Broken clouds.9 mph71%30.36 "HgN/A
8:50 AM48 °FBroken clouds.8 mph76%30.36 "HgN/A
8:20 AM48 °FBroken clouds.7 mph76%30.36 "HgN/A
7:50 AM46 °FBroken clouds.6 mph82%30.36 "HgN/A
7:20 AM46 °FScattered showers. Broken clouds.3 mph82%30.33 "HgN/A
6:50 AM46 °FBroken clouds.2 mph82%30.33 "HgN/A
6:20 AM46 °FScattered showers. Broken clouds.7 mph82%30.36 "HgN/A
5:50 AM46 °FPartly sunny.2 mph82%30.33 "HgN/A
5:20 AM45 °FPartly sunny.No wind87%30.33 "HgN/A
4:50 AM45 °FPartly sunny.5 mph93%30.33 "HgN/A
4:20 AM45 °FPassing clouds.6 mph87%30.33 "HgN/A
3:50 AM45 °FOvercast.7 mph87%30.33 "HgN/A
3:20 AM45 °FMostly cloudy.7 mph87%30.33 "HgN/A
2:50 AM45 °FPassing clouds.2 mph93%30.33 "HgN/A
2:20 AM45 °FPartly cloudy.1 mph93%30.33 "HgN/A
1:50 AM45 °FPassing clouds.3 mph93%30.33 "HgN/A
1:20 AM46 °FScattered showers. Passing clouds.5 mph87%30.33 "HgN/A
12:50 AM48 °FSprinkles. Passing clouds.5 mph71%30.33 "HgN/A
12:20 AM48 °FPassing clouds.8 mph76%30.30 "HgN/A
11:50 PM
Tue, May 24
48 °FPassing clouds.10 mph76%30.30 "HgN/A
11:20 PM48 °FPartly sunny.8 mph76%30.30 "HgN/A
10:50 PM48 °FPartly sunny.12 mph76%30.30 "HgN/A
10:20 PM48 °FPartly sunny.10 mph76%30.30 "HgN/A
9:50 PM50 °FBroken clouds.10 mph71%30.30 "HgN/A
9:20 PM50 °FBroken clouds.10 mph71%30.27 "HgN/A
8:50 PM50 °FBroken clouds.7 mph71%30.27 "HgN/A
8:20 PM50 °FBroken clouds.7 mph71%30.27 "HgN/A
7:50 PM50 °FScattered showers. Broken clouds.12 mph76%30.27 "HgN/A
7:20 PM50 °FLight rain. Broken clouds.13 mph76%30.27 "HgN/A
6:50 PM50 °FScattered showers. Broken clouds.9 mph82%30.24 "HgN/A
6:20 PM50 °FScattered showers. Broken clouds.9 mph82%30.24 "HgN/A
5:50 PM50 °FScattered showers. Broken clouds.12 mph82%30.24 "HgN/A
5:20 PM50 °FScattered showers. Partly sunny.9 mph82%30.24 "HgN/A
4:50 PM50 °FScattered showers. Partly sunny.10 mph82%30.24 "HgN/A
4:20 PM50 °FScattered showers. Partly sunny.9 mph76%30.24 "HgN/A
3:50 PM50 °FScattered showers. Broken clouds.9 mph76%30.24 "HgN/A
3:20 PM50 °FScattered showers. Broken clouds.9 mph76%30.24 "HgN/A
2:50 PM50 °FBroken clouds.10 mph76%30.24 "HgN/A
2:20 PM50 °FBroken clouds.12 mph76%30.24 "HgN/A
1:50 PM50 °FBroken clouds.12 mph76%30.24 "HgN/A
1:20 PM50 °FBroken clouds.13 mph82%30.24 "HgN/A
Weather by CustomWeather, © 2016

See weather overviewHow to use our weather pages